TimeMST,TemperatureF,Dew PointF,Humidity,Sea Level PressureIn,VisibilityMPH,Wind Direction,Wind SpeedMPH,Gust SpeedMPH,PrecipitationIn,Events,Conditions,WindDirDegrees,DateUTC
12:54 AM,45.0,23.0,42,29.98,10.0,Calm,Calm,-,N/A,,Clear,0,2012-10-06 07:54:00
1:54 AM,44.1,24.1,45,29.97,10.0,Calm,Calm,-,N/A,,Clear,0,2012-10-06 08:54:00
2:54 AM,43.0,23.0,45,29.96,10.0,Calm,Calm,-,N/A,,Clear,0,2012-10-06 09:54:00
3:54 AM,37.9,21.9,53,29.98,10.0,East,3.5,-,N/A,,Clear,90,2012-10-06 10:54:00
4:54 AM,35.1,21.0,57,30.00,10.0,Calm,Calm,-,N/A,,Clear,0,2012-10-06 11:54:00
5:54 AM,30.9,19.9,64,30.03,10.0,Calm,Calm,-,N/A,,Clear,0,2012-10-06 12:54:00
6:54 AM,34.0,21.0,59,30.04,10.0,Calm,Calm,-,N/A,,Clear,0,2012-10-06 13:54:00
7:54 AM,42.1,24.1,49,30.05,10.0,Calm,Calm,-,N/A,,Clear,0,2012-10-06 14:54:00
8:54 AM,57.0,28.9,34,30.01,10.0,Calm,Calm,-,N/A,,Clear,0,2012-10-06 15:54:00
9:54 AM,61.0,26.1,26,30.00,10.0,SSW,4.6,-,N/A,,Clear,210,2012-10-06 16:54:00
10:54 AM,66.0,25.0,21,29.96,10.0,Variable,3.5,-,N/A,,Clear,0,2012-10-06 17:54:00
11:54 AM,70.0,24.1,18,29.94,10.0,WNW,6.9,-,N/A,,Clear,290,2012-10-06 18:54:00
12:54 PM,69.1,21.9,17,29.93,10.0,Calm,Calm,-,N/A,,Clear,0,2012-10-06 19:54:00
1:54 PM,69.1,21.9,17,29.91,10.0,Variable,6.9,17.3,N/A,,Clear,0,2012-10-06 20:54:00
2:54 PM,69.1,24.1,18,29.90,10.0,North,9.2,-,N/A,,Clear,350,2012-10-06 21:54:00
3:54 PM,72.0,24.1,17,29.89,10.0,Variable,3.5,-,N/A,,Clear,0,2012-10-06 22:54:00
4:54 PM,69.1,24.1,18,29.91,10.0,West,10.4,-,N/A,,Clear,280,2012-10-06 23:54:00
5:54 PM,64.9,23.0,20,29.95,10.0,Variable,3.5,-,N/A,,Clear,0,2012-10-07 00:54:00
6:54 PM,50.0,19.9,31,30.01,10.0,Calm,Calm,-,N/A,,Clear,0,2012-10-07 01:54:00
7:54 PM,43.0,19.0,38,30.01,10.0,Calm,Calm,-,N/A,,Clear,0,2012-10-07 02:54:00
8:54 PM,42.1,19.9,41,29.96,10.0,Calm,Calm,-,N/A,,Clear,0,2012-10-07 03:54:00
9:54 PM,41.0,19.9,43,29.96,10.0,Calm,Calm,-,N/A,,Clear,0,2012-10-07 04:54:00
10:54 PM,35.1,16.0,46,29.97,10.0,Calm,Calm,-,N/A,,Clear,0,2012-10-07 05:54:00